World > North America > United States > Missouri

Saint Louis, Missouri Regional Weather

Lat: 38.64N, Lon: 90.24W
Wx Zone: MOZ064
Feedback

Saint Louis, MO Regional Weather

Expires:201912091100;;083073
ASUS43 KEAX 091010
RWREAX

WEATHER ROUNDUP FOR EASTERN KANSAS AND NORTHWEST MISSOURI
NATIONAL WEATHER SERVICE KANSAS CITY/PLEASANT HILL MO
400 AM CST MON DEC 09 2019


MOZ041-047>049-056>058-063>065-088>090-097-091100-
...EASTERN AND SOUTHERN MISSOURI...
  
CITY           SKY/WX    TMP DP  RH WIND       PRES   REMARKS
ST. LOUIS INTL CLOUDY    50  45  83 S10       29.65F                  
SPIRIT OF STL  CLOUDY    51  45  79 CALM      29.65F                  
COLUMBIA       CLOUDY    48  45  89 SE6       29.60F                  
JEFFERSON CITY CLOUDY    50  45  83 E5        29.61F                  
ROLLA          CLOUDY    49  44  83 S14       29.63F                  
OSAGE BEACH    CLOUDY    49  45  86 S8        29.62F                  
SPRINGFIELD    CLEAR     46  44  93 SE14      29.58F                  
JOPLIN         CLEAR     46  45  96 SE3       29.58S FOG              
WEST PLAINS    FOG       48  47  96 S7        29.67F VSB 1/2          

$$


SKY/WX - Weather  TMP - Temperature  DP - Dew Point  RH - Relative Humidity
WIND - Wind Direction/Speed PRES - Barometric Pressure VSB - Visibility
WCI - Wind Chill Index E13G22 Wind - East Wind 13 mph/Gusts of 22 mph